www.pogodaiklimat.ru

Погода и климат >> Архив погоды >> Россия >> город Москва >> Москва


АРХИВ ПОГОДЫ в Москве

Время (UTC), дата Ветер
(напр.,м/с)
 
Видим.   Явления Облачность Т
(С)
Тd
(С)
f
(%)
Тe
(С)
Тes
(С)
Комфортность P
(гПа)
Po
(гПа)
Тmin
(С)
Tmax
(С)
R
(мм)
R24
(мм)
S
(см)
09 18.08 штиль 0 4000 м дымка {ливн. осадки} 10/10 600 м
[Cu Sc]
+19.7 +17.9 89 +22 +22 комфорт 1007.9 989.8
12 18.08 ЮВ 1 10 км {ливн. осадки} 9/9 600 м
[Cu Sc]
+22.2 +16.6 71 +27 +28 душно 1008.8 990.9
15 18.08 Ю 2 10 км 9/9 600 м
[Sc diur, vesp]
+20.5 +15.2 72 +24 +24 комфорт 1010.6 992.4 3
18 18.08 Ю 1 н/о 4/3 600 м
[Sc Ci fib]
+18.0 +14.2 78 +19 +19 тепло 1011.8 993.3 +22.6 2
21 18.08 штиль 0 н/о 10/10 600 м
[Sc]
+17.1 +14.6 85 +17 +17 тепло 1012.2 993.7
00 19.08 штиль 0 н/о слаб. ливневой дождь 10/10 300 м
[Cb cap]
+16.2 +14.9 92 +16 +16 тепло 1013.1 994.5
03 19.08 штиль 0 4000 м дымка {ливн. осадки} 9/9 300 м
[Frnb]
+15.5 +14.9 96 +15 +15 по сезону 1014.2 995.5 +15.3 0.7
06 19.08 З 1 4000 м в посл. час ливневой дождь 10/10 300 м
[Sc diur, vesp]
+16.4 +14.9 91 +17 +17 по сезону 1015.8 997.2 +15.3 0.7
09 19.08 З 1 10 км 10/10 600 м
[Sc]
+18.8 +14.1 74 +21 +21 комфорт 1016.9 998.4
12 19.08 ЮЗ 1 10 км 8/8 600 м
[Sc]
+21.1 +14.0 64 +24 +26 комфорт 1018.0 999.6
15 19.08 ЮЗ 1 10 км 8/3 600 м
[Cu hum Ac trans]
+20.4 +15.1 72 +24 +25 комфорт 1018.9 1000.4 0.0
18 19.08 штиль 0 н/о дымка ясно +16.5 +15.2 92 +16 +16 по сезону 1020.3 1001.6 +21.4
21 19.08 штиль 0 н/о дымка ясно +14.1 +13.6 97 +14 +14 по сезону 1021.1 1002.2
00 20.08 штиль 0 н/о дымка ясно +13.5 +13.1 97 +13 +13 по сезону 1021.0 1002.0
03 20.08 штиль 0 2000 м дымка ясно +13.4 +13.1 98 +13 +13 прохладно 1021.9 1003.0 +13.1
06 20.08 штиль 0 10 км ясно +21.9 +15.1 65 +25 +33 комфорт 1021.9 1003.5 +13.1
09 20.08 ЮЗ 1 10 км ясно +26.4 +14.2 47 +29 +42 жарко 1021.3 1003.2
12 20.08 штиль 0 10 км 3/3 600 м
[Cu hum]
+27.5 +14.6 45 +30 +37 жарко 1020.9 1002.8
15 20.08 штиль 0 10 км 3/0 600 м
[Cu hum]
+26.6 +15.1 49 +29 +31 жарко 1021.1 1003.0
18 20.08 СЗ 1 н/о 4/4 600 м
[Sc diur, vesp]
+22.2 +17.0 72 +27 +27 душно 1023.0 1004.6 +28.6
21 20.08 штиль 0 н/о дымка {ливн. осадки} 8/8 600 м
[Sc]
+18.6 +17.2 92 +19 +19 тепло 1023.5 1004.9
00 21.08 штиль 0 н/о дымка 6/6 600 м
[Sc]
+17.0 +16.3 96 +17 +17 тепло 1024.0 1005.2
03 21.08 штиль 0 4000 м дымка 5/5 600 м
[Sc Ci fib]
+16.6 +16.2 97 +16 +17 по сезону 1025.1 1006.3 +16.5
06 21.08 С 1 10 км дымка 6/0
[Ci]
+21.5 +17.6 78 +26 +31 душно 1025.3 1006.8 +16.5
09 21.08 С 1 10 км 10/10 600 м
[Cu Sc]
+23.6 +16.8 66 +27 +27 жарко 1025.1 1006.8
12 21.08 С 2 10 км 8/6 600 м
[Cu med, cong Ci fib]
+25.1 +16.6 59 +29 +31 душно 1024.4 1006.2
15 21.08 СВ 1 10 км 8/1 600 м
[Sc diur, vesp Ac trans Cc]
+24.3 +16.7 63 +28 +29 душно 1023.3 1005.0
18 21.08 штиль 0 н/о 1/0
[Ci fib]
+20.4 +17.2 82 +23 +23 комфорт 1023.1 1004.6 +25.9
21 21.08 ЮВ 1 н/о дымка ясно +19.7 +17.3 86 +23 +23 комфорт 1022.1 1003.6
00 22.08 Ю 1 н/о дымка ясно +19.4 +17.7 90 +23 +23 комфорт 1021.2 1002.7
03 22.08 штиль 0 4000 м дымка ясно +18.7 +17.5 93 +20 +20 тепло 1019.9 1001.4 +18.6
06 22.08 Ю 1 10 км ясно +25.3 +16.8 59 +29 +35 душно 1018.8 1000.7 +18.6
09 22.08 СЗ 2 10 км 10/10 600 м
[Cu Sc]
+23.8 +17.1 66 +28 +28 душно 1020.5 1002.2
12 22.08 СЗ 3 10 км 9/9 600 м
[Cu Sc]
+19.6 +12.7 64 +21 +22 комфорт 1023.2 1004.6
15 22.08 СЗ 2 10 км 8/3 600 м
[Sc Ac trans Ci fib]
+18.9 +12.1 65 +20 +21 тепло 1024.1 1005.5
18 22.08 СЗ 1 н/о ясно +16.6 +11.7 73 +17 +17 по сезону 1025.8 1007.0 +26.0
21 22.08 СЗ 1 н/о ясно +15.1 +10.9 76 +16 +16 по сезону 1027.2 1008.3
00 23.08 штиль 0 н/о дымка ясно +12.2 +10.7 91 +12 +12 по сезону 1028.3 1009.1
03 23.08 штиль 0 4000 м дымка ясно +11.4 +10.6 95 +11 +11 прохладно 1029.1 1009.9 +10.8
06 23.08 С 1 10 км 3/0
[Ci fib]
+17.8 +11.5 67 +19 +25 тепло 1029.6 1010.7 +10.8
09 23.08 С 1 10 км 5/5 1000 м
[Cu hum]
+21.1 +10.6 51 +23 +29 комфорт 1029.5 1010.9
12 23.08 С 2 10 км 3/3 1000 м
[Cu hum Ci fib]
+22.2 +8.0 40 +23 +29 комфорт 1028.3 1009.8
15 23.08 С 2 10 км 3/0
[Ci sp]
+21.5 +8.1 42 +23 +24 комфорт 1027.5 1008.9
18 23.08 штиль 0 н/о ясно +15.0 +10.5 74 +15 +15 по сезону 1027.9 1008.9 +22.6
21 23.08 штиль 0 н/о дымка ясно +12.5 +11.0 91 +12 +12 прохладно 1027.9 1008.8
00 24.08 штиль 0 н/о дымка ясно +11.3 +10.7 96 +11 +11 по сезону 1027.6 1008.4
03 24.08 штиль 0 2000 м дымка ясно +10.7 +10.2 97 +10 +10 прохладно 1027.3 1008.0 +10.4
06 24.08 СЗ 1 10 км 6/0
[Cs]
+19.5 +11.0 58 +22 +27 комфорт 1026.1 1007.4 +10.4
09 24.08 З 2 10 км 8/3 600 м
[Cu hum Ci fib]
+21.6 +9.9 47 +23 +30 комфорт 1024.6 1006.1
12 24.08 З 1 10 км 3/3 600 м
[Cu hum Ci fib]
+23.4 +9.3 41 +25 +31 комфорт 1022.5 1004.1
15 24.08 З 1 10 км 10/10 600 м
[Sc]
+22.1 +10.1 46 +24 +24 комфорт 1021.9 1003.5
18 24.08 СЗ 1 н/о 8/6 600 м
[Sc Ci fib]
+19.9 +11.7 59 +23 +23 комфорт 1022.3 1003.7 +23.6
21 24.08 СЗ 1 н/о ясно +16.5 +10.9 69 +17 +17 тепло 1023.2 1004.4
00 25.08 штиль 0 н/о дымка 3/0
[Ci fib]
+13.3 +11.4 88 +13 +13 по сезону 1024.1 1005.1
03 25.08 СЗ 1 4000 м дымка ясно +12.7 +10.9 89 +13 +13 по сезону 1025.3 1006.3 +12.6
06 25.08 СЗ 2 10 км ясно +16.2 +11.0 71 +16 +21 по сезону 1026.4 1007.6 +12.6

 

Местоположение метеостанции Москва (город Москва, Россия): широта 55.83 долгота 37.62 высота над уровнем моря 156 м.

В архиве по умолчанию представлена погода в Москве за последнюю неделю. Архивные данные за месяц целиком и за предыдущие месяцы, начиная с января 2011 года, Вы можете получить, выбрав интересующий диапазон дат из раскрывающегося списка и нажав кнопку "Ввод!".


*Определитесь, кто Вы:
робот инопланетянин человек

Внимание! Время в таблицах - всемирное. Для получения местного времени необходимо прибавить поправку, которая равна 3 ч.

Смотрите также архив погоды в соседних городах и на ближайших метеорологических станциях:

Погода в Москве (Балчуг) (город Москва, Россия) (9 км)
Погода в Москве (Тушино) (город Москва, Россия) (12 км)
Погода в Долгопрудном (Московская область, Россия) (13 км)
Погода в Москве (Строгино) (город Москва, Россия) (14 км)
Погода в Красногорске (Московская область, Россия) (18 км)
Погода в Шереметьево (Московская область, Россия) (20 км)
Погода в Немчиновке (город Москва, Россия) (21 км)
Погода в Железнодорожном АМС (Московская область, Россия) (23 км)
Погода в Луговой (Московская область, Россия) (26 км)
Погода в Пушкино (Московская область, Россия) (26 км)

Пояснения к столбцам:

Ветер - указаны скорость ветра в м/с - средняя за 10 мин, порывы в срок и между сроками (в фигурных скобках) и направление, откуда дует ветер: С - северный, СВ - северо-восточный, В - восточный, ЮВ - юго-восточный, Ю - южный, ЮЗ - юго-западный, З - западный, СЗ - северо-западный.
Видимость - горизонтальная дальность видимости в метрах или километрах. При видимости от 1 до 10 км при отсутствии осадков обычно наблюдается дымка, при ухудшении видимости до 1 км и менее - туман. В сухую погоду видимость может ухудшаться дымом, пылью или мглою.
Явления - указаны атмосферные явления, наблюдавшиеся в срок или в последний час перед сроком; фигурными скобками обозначены явления, наблюдавшиеся между сроками (за 1-3 часа до срока); квадратными скобками обозначены град или гололедные отложения с указанием их диаметра в мм.
Облачность - указаны через наклонную черту общая и нижняя облачность в баллах и высота нижней границы облаков в метрах; квадратными скобками обозначены формы облаков: Ci - перистые, Cs - перисто-слоистые, Cc - перисто-кучевые, Ac - высококучевые, As - высокослоистые, Sc - слоисто-кучевые, Ns - слоисто-дождевые, Cu - кучевые, Cb - кучево-дождевые. Подробнее классификацию облаков см. в Атласе облаков (PDF).
T - Температура воздуха - температура, измеренная на высоте 2 м над землей.
Td - Температура точки росы - температура, при понижении до которой содержащийся в воздухе водяной пар достигнет насыщения.
f - Относительная влажность воздуха - влажноcть воздуха, измеренная на высоте 2 м над землей.
Te - Эффективная температура - температура, которую ощущает одетый по сезону человек в тени. Характеристика душности погоды. При расчете учитывается влияние влажности воздуха и скорости ветра на теплоощущения человека.
Tes - Эффективная температура на солнце - температура, которую ощущает человек, с поправкой на солнечный нагрев. Характеристика знойности погоды. Зависит от высоты солнца над горизонтом, облачности и скорости ветра. Ночью, в пасмурную погоду, а также при ветре 12 м/с и более поправка равна нулю.
P - Атмосферное давление - приведенное к уровню моря атмосферное давление.
Po - Атмосферное давление - измеренное на уровне метеостанции атмосферное давление.
Tmin - Минимальная температура - минимум температуры воздуха на высоте 2 м над землей.
Tmax - Максимальная температура - максимум температуры воздуха на высоте 2 м над землей.
R - Количество осадков - Количество выпавших осадков за период времени, мм. При наведении курсора мыши на число - период времени, за который выпало указанное количество осадков.
R24 - Количество осадков - Количество выпавших осадков за 24 часа, мм.
S - Снежный покров - Высота снежного покрова, см. При наведении курсора мыши на число - состояние снежного покрова и степень покрытия местности в баллах.